Location: �perlecques
(50.8057°N, 2.1521°E)
Time: 07:22:14
(UTC+00:00)

Vanguard 1 Rocket - Pass Details

Date: 06 August 2021
Orbit: 650 x 4226 km, 34.3° (Epoch: 22 September)

Event Time Altitude Azimuth Distance (km) Brightness Sun altitude
Rises 07:59:32 0° 222° (SW) 8,462 12.1 32.0°
Reaches altitude 10° 08:06:29 10° 215° (SW) 7,314 11.9 33.0°
Maximum altitude 08:26:07 35° 161° (SSE) 4,447 11.8 36.0°
Drops below altitude 10° 08:38:54 10° 104° (ESE) 4,838 12.4 37.9°
Sets 08:42:19 0° 95° (E) 5,417 12.2 38.4°
